Simultaneous Nadir Overpasses (SNOs) Predictions

Prediction of SNOs between GOES-15 and METOP-C Satellite Orbit:

Table of predicted SNOs for the next 14.0 days since TLE Epoch: 11/27/2022
Index Date Time (GOES-15) GOES-15 Lat,Lon METOP-C Lat,Lon Distance(km) Time Diff (sec)
1 11/27/2022 05:56:30 0.18,-128.06 0.46,-126.94 128.78 80
2 11/28/2022 18:15:23 -0.17,-128.00 0.63,-131.49 397.79 80
3 11/29/2022 17:57:24 -0.17,-127.98 -0.51,-126.50 168.54 80
4 12/01/2022 06:16:24 0.16,-127.96 -0.54,-131.09 356.69 80
5 12/02/2022 05:53:04 0.16,-127.93 0.55,-126.09 209.06 80
6 12/03/2022 18:11:57 -0.16,-127.86 0.48,-130.65 318.17 80
7 12/04/2022 17:53:59 -0.16,-127.83 -0.67,-125.66 247.96 80
8 12/06/2022 06:12:58 0.15,-127.81 -0.38,-130.25 277.26 80
9 12/07/2022 05:49:39 0.15,-127.78 0.71,-125.25 287.96 80
10 12/08/2022 18:08:32 -0.14,-127.70 0.31,-129.81 240.72 80
11 12/09/2022 17:50:33 -0.14,-127.66 -0.79,-124.82 324.78 80
